StationID,Date,MaxTemp,MinTemp,Precipitation,Snowfall,SnowDepth
"CA001034175","1967-06-01",,,0.00,0.00,
"CA001034175","1967-06-02",,,0.00,0.00,
"CA001034175","1967-06-03",,,0.00,0.00,
"CA001034175","1967-06-04",66.92,,0.00,0.00,
"CA001034175","1967-06-05",66.02,57.92,0.00,0.00,
"CA001034175","1967-06-06",60.08,53.06,0.00,0.00,
"CA001034175","1967-06-07",60.98,51.08,0.00,0.00,
"CA001034175","1967-06-08",62.96,53.96,0.00,0.00,
"CA001034175","1967-06-09",60.98,48.92,5.00,0.00,
"CA001034175","1967-06-10",57.02,51.98,0.00,0.00,
"CA001034175","1967-06-11",60.98,53.06,3.00,0.00,
"CA001034175","1967-06-12",62.06,53.06,0.00,0.00,
"CA001034175","1967-06-13",60.98,51.98,0.00,0.00,
"CA001034175","1967-06-14",62.06,53.06,0.00,0.00,
"CA001034175","1967-06-15",62.06,53.06,0.00,0.00,
"CA001034175","1967-06-16",71.06,57.02,0.00,0.00,
"CA001034175","1967-06-17",71.06,57.02,0.00,0.00,
"CA001034175","1967-06-18",73.04,53.96,0.00,0.00,
"CA001034175","1967-06-19",71.06,57.02,0.00,0.00,
"CA001034175","1967-06-20",62.06,57.02,23.00,0.00,
"CA001034175","1967-06-21",59.00,55.94,3.00,0.00,
"CA001034175","1967-06-22",64.04,55.94,0.00,0.00,
"CA001034175","1967-06-23",62.06,55.94,0.00,0.00,
"CA001034175","1967-06-24",69.08,53.96,0.00,0.00,
"CA001034175","1967-06-25",64.04,55.04,5.00,0.00,
"CA001034175","1967-06-26",59.00,53.06,23.00,0.00,
"CA001034175","1967-06-27",62.06,55.04,0.00,0.00,
"CA001034175","1967-06-28",60.08,55.94,38.00,0.00,
"CA001034175","1967-06-29",64.94,55.04,0.00,0.00,
"CA001034175","1967-06-30",71.96,51.08,0.00,0.00,
"CA001034175","1967-07-01",80.96,55.94,0.00,0.00,
"CA001034175","1967-07-02",77.00,57.92,0.00,0.00,
"CA001034175","1967-07-03",75.92,60.98,0.00,0.00,
"CA001034175","1967-07-04",62.06,55.94,0.00,0.00,
"CA001034175","1967-07-05",60.98,53.06,0.00,0.00,
"CA001034175","1967-07-06",62.96,51.98,0.00,0.00,
"CA001034175","1967-07-07",57.92,53.96,13.00,0.00,
"CA001034175","1967-07-08",60.98,53.06,18.00,0.00,
"CA001034175","1967-07-09",62.96,53.96,0.00,0.00,
"CA001034175","1967-07-10",66.92,48.92,0.00,0.00,
"CA001034175","1967-07-11",68.00,50.00,0.00,0.00,
"CA001034175","1967-07-12",64.04,53.96,0.00,0.00,
"CA001034175","1967-07-13",66.02,55.94,0.00,0.00,
"CA001034175","1967-07-14",64.94,50.00,0.00,0.00,
"CA001034175","1967-07-15",66.02,51.08,0.00,0.00,
"CA001034175","1967-07-16",66.92,59.00,0.00,0.00,
"CA001034175","1967-07-17",64.04,55.94,18.00,0.00,
"CA001034175","1967-07-18",62.06,55.94,267.00,0.00,
"CA001034175","1967-07-19",62.96,55.94,66.00,0.00,
"CA001034175","1967-07-20",66.02,55.94,0.00,0.00,
"CA001034175","1967-07-21",64.94,57.02,0.00,0.00,
"CA001034175","1967-07-22",69.98,53.96,0.00,0.00,
"CA001034175","1967-07-23",66.92,55.04,0.00,0.00,
"CA001034175","1967-07-24",60.98,57.02,0.00,0.00,
"CA001034175","1967-07-25",64.04,57.02,20.00,0.00,
"CA001034175","1967-07-26",60.08,55.04,0.00,0.00,
"CA001034175","1967-07-27",62.06,55.04,3.00,0.00,
"CA001034175","1967-07-28",66.02,55.94,0.00,0.00,
"CA001034175","1967-07-29",66.92,55.04,76.00,0.00,
"CA001034175","1967-07-30",66.92,59.00,28.00,0.00,
"CA001034175","1967-07-31",66.92,51.98,0.00,0.00,
"CA001034175","1967-08-01",66.92,53.96,0.00,0.00,
"CA001034175","1967-08-02",73.04,53.06,0.00,0.00,
"CA001034175","1967-08-03",64.04,55.94,0.00,0.00,
"CA001034175","1967-08-04",64.04,57.02,0.00,0.00,
"CA001034175","1967-08-05",62.06,57.02,0.00,0.00,
"CA001034175","1967-08-06",60.98,57.02,0.00,0.00,
"CA001034175","1967-08-07",64.94,55.94,0.00,0.00,
"CA001034175","1967-08-08",69.98,51.98,0.00,0.00,
"CA001034175","1967-08-09",77.00,55.04,0.00,0.00,
"CA001034175","1967-08-10",71.06,55.94,0.00,0.00,
"CA001034175","1967-08-11",69.08,55.94,0.00,0.00,
"CA001034175","1967-08-12",71.06,57.02,0.00,0.00,
"CA001034175","1967-08-13",73.94,57.02,0.00,0.00,
"CA001034175","1967-08-14",71.96,57.02,0.00,0.00,
"CA001034175","1967-08-15",78.08,57.92,0.00,0.00,
"CA001034175","1967-08-16",73.04,59.00,0.00,0.00,
"CA001034175","1967-08-17",66.02,57.92,0.00,0.00,
"CA001034175","1967-08-18",66.02,57.02,0.00,0.00,
"CA001034175","1967-08-19",73.94,55.94,0.00,0.00,
"CA001034175","1967-08-20",66.92,57.02,150.00,0.00,
"CA001034175","1967-08-21",62.96,57.92,5.00,0.00,
"CA001034175","1967-08-22",68.00,55.94,0.00,0.00,
"CA001034175","1967-08-23",69.98,55.94,0.00,0.00,
"CA001034175","1967-08-24",66.92,51.08,0.00,0.00,
"CA001034175","1967-08-25",73.04,51.98,0.00,0.00,
"CA001034175","1967-08-26",75.92,53.06,0.00,0.00,
"CA001034175","1967-08-27",64.04,55.94,0.00,0.00,
"CA001034175","1967-08-28",80.96,55.94,0.00,0.00,
"CA001034175","1967-08-29",66.92,59.00,0.00,0.00,
"CA001034175","1967-08-30",66.02,57.02,0.00,0.00,
"CA001034175","1967-08-31",69.08,60.08,51.00,0.00,
"CA001034175","1967-09-01",62.96,60.08,279.00,0.00,
"CA001034175","1967-09-02",64.94,57.92,51.00,0.00,
"CA001034175","1967-09-03",66.92,57.92,0.00,0.00,
"CA001034175","1967-09-04",66.92,55.94,0.00,0.00,
"CA001034175","1967-09-05",60.98,57.92,124.00,0.00,
"CA001034175","1967-09-06",66.02,55.04,0.00,0.00,
"CA001034175","1967-09-07",66.92,51.08,0.00,0.00,
"CA001034175","1967-09-08",64.04,53.06,71.00,0.00,
"CA001034175","1967-09-09",64.94,55.04,155.00,0.00,
"CA001034175","1967-09-10",62.06,53.96,33.00,0.00,
"CA001034175","1967-09-11",62.06,48.02,10.00,0.00,
"CA001034175","1967-09-12",64.94,46.94,0.00,0.00,
"CA001034175","1967-09-13",68.00,50.00,0.00,0.00,
"CA001034175","1967-09-14",80.06,53.06,0.00,0.00,
"CA001034175","1967-09-15",87.08,59.00,0.00,0.00,
"CA001034175","1967-09-16",66.02,55.94,0.00,0.00,
"CA001034175","1967-09-17",69.08,57.02,5.00,0.00,
"CA001034175","1967-09-18",66.02,55.94,0.00,0.00,
"CA001034175","1967-09-19",68.00,57.02,0.00,0.00,
"CA001034175","1967-09-20",66.92,59.00,0.00,0.00,
"CA001034175","1967-09-21",64.94,55.04,33.00,0.00,
"CA001034175","1967-09-22",62.96,46.94,0.00,0.00,
"CA001034175","1967-09-23",69.08,48.92,0.00,0.00,
"CA001034175","1967-09-24",69.08,50.00,0.00,0.00,
"CA001034175","1967-09-25",66.02,53.06,0.00,0.00,
"CA001034175","1967-09-26",71.96,50.00,0.00,0.00,
"CA001034175","1967-09-27",71.06,50.00,0.00,0.00,
"CA001034175","1967-09-28",64.04,48.02,0.00,0.00,
"CA001034175","1967-09-29",64.04,55.04,249.00,0.00,
"CA001034175","1967-09-30",60.98,53.96,175.00,0.00,
"CA001034175","1967-10-01",57.02,50.00,122.00,0.00,
"CA001034175","1967-10-02",62.06,48.92,30.00,0.00,
"CA001034175","1967-10-03",55.94,50.00,490.00,0.00,
"CA001034175","1967-10-04",53.06,48.92,244.00,0.00,
"CA001034175","1967-10-05",57.92,50.00,112.00,0.00,
"CA001034175","1967-10-06",57.92,51.98,1265.00,0.00,
"CA001034175","1967-10-07",57.92,39.92,1346.00,0.00,
"CA001034175","1967-10-08",62.96,55.04,401.00,0.00,
"CA001034175","1967-10-09",68.00,55.04,145.00,0.00,
"CA001034175","1967-10-10",60.08,59.00,384.00,0.00,
"CA001034175","1967-10-11",62.06,59.00,188.00,0.00,
"CA001034175","1967-10-12",59.00,59.00,371.00,0.00,
"CA001034175","1967-10-13",62.06,51.08,157.00,0.00,
"CA001034175","1967-10-14",62.06,46.04,0.00,0.00,
"CA001034175","1967-10-15",57.92,48.92,58.00,0.00,
"CA001034175","1967-10-16",64.94,46.04,0.00,0.00,
"CA001034175","1967-10-17",62.96,48.92,196.00,0.00,
"CA001034175","1967-10-18",64.94,53.96,51.00,0.00,
"CA001034175","1967-10-19",62.06,55.04,89.00,0.00,
"CA001034175","1967-10-20",60.98,46.04,612.00,0.00,
"CA001034175","1967-10-21",55.04,46.94,284.00,0.00,
"CA001034175","1967-10-22",53.96,41.00,135.00,0.00,
"CA001034175","1967-10-23",57.92,37.94,0.00,0.00,
"CA001034175","1967-10-24",46.04,42.98,231.00,0.00,
"CA001034175","1967-10-25",55.04,39.92,0.00,0.00,
"CA001034175","1967-10-26",50.00,39.02,490.00,0.00,
"CA001034175","1967-10-27",55.94,39.02,422.00,0.00,
"CA001034175","1967-10-28",55.04,44.06,18.00,0.00,
"CA001034175","1967-10-29",55.94,44.06,1052.00,0.00,
"CA001034175","1967-10-30",57.92,46.04,1039.00,0.00,
"CA001034175","1967-10-31",57.92,50.00,0.00,0.00,
"CA001034175","1967-11-01",57.02,39.92,0.00,0.00,
"CA001034175","1967-11-02",57.02,41.00,0.00,0.00,
"CA001034175","1967-11-03",57.02,39.92,0.00,0.00,
"CA001034175","1967-11-04",57.02,39.02,0.00,0.00,
"CA001034175","1967-11-05",51.98,42.08,0.00,0.00,
"CA001034175","1967-11-06",53.06,44.96,142.00,0.00,
"CA001034175","1967-11-07",57.02,46.04,20.00,0.00,
"CA001034175","1967-11-08",51.08,46.94,221.00,0.00,
"CA001034175","1967-11-09",51.98,44.06,371.00,0.00,
"CA001034175","1967-11-10",53.06,46.04,66.00,0.00,
"CA001034175","1967-11-11",51.98,42.98,30.00,0.00,
"CA001034175","1967-11-12",51.98,44.96,8.00,0.00,
"CA001034175","1967-11-13",53.96,46.94,175.00,0.00,
"CA001034175","1967-11-14",55.04,48.92,330.00,0.00,
"CA001034175","1967-11-15",55.94,48.92,28.00,0.00,
"CA001034175","1967-11-16",55.94,46.04,0.00,0.00,
"CA001034175","1967-11-17",50.00,42.08,188.00,0.00,
"CA001034175","1967-11-18",53.96,42.08,0.00,0.00,
"CA001034175","1967-11-19",51.08,37.04,0.00,0.00,
"CA001034175","1967-11-20",51.08,35.96,0.00,0.00,
"CA001034175","1967-11-21",48.02,37.04,0.00,0.00,
"CA001034175","1967-11-22",53.96,42.98,0.00,0.00,
"CA001034175","1967-11-23",48.92,37.94,53.00,0.00,
"CA001034175","1967-11-24",51.08,37.04,0.00,0.00,
"CA001034175","1967-11-25",46.04,30.02,0.00,0.00,
"CA001034175","1967-11-26",41.00,30.92,38.00,0.00,
"CA001034175","1967-11-27",46.94,35.96,28.00,0.00,
"CA001034175","1967-11-28",44.06,33.08,437.00,0.00,
"CA001034175","1967-11-29",44.96,35.96,58.00,0.00,
"CA001034175","1967-11-30",41.00,35.06,117.00,0.00,
"CA001034175","1967-12-01",46.04,37.04,495.00,0.00,
"CA001034175","1967-12-02",46.04,37.94,272.00,0.00,
"CA001034175","1967-12-03",44.06,33.08,173.00,0.00,
"CA001034175","1967-12-04",44.06,33.98,211.00,0.00,
"CA001034175","1967-12-05",42.98,37.04,109.00,0.00,
"CA001034175","1967-12-06",44.96,32.00,236.00,0.00,
"CA001034175","1967-12-07",39.92,33.98,97.00,0.00,
"CA001034175","1967-12-08",51.98,33.98,749.00,0.00,
"CA001034175","1967-12-09",53.06,35.96,881.00,0.00,
"CA001034175","1967-12-10",53.06,44.06,91.00,0.00,
"CA001034175","1967-12-11",42.08,30.02,0.00,0.00,
"CA001034175","1967-12-12",46.04,28.94,0.00,0.00,
"CA001034175","1967-12-13",42.08,28.94,0.00,0.00,
"CA001034175","1967-12-14",37.94,28.04,0.00,0.00,
"CA001034175","1967-12-15",37.94,30.02,0.00,0.00,
"CA001034175","1967-12-16",42.98,30.92,0.00,0.00,
"CA001034175","1967-12-17",39.02,30.02,0.00,0.00,
"CA001034175","1967-12-18",44.06,30.02,0.00,0.00,
"CA001034175","1967-12-19",39.92,30.92,0.00,0.00,
"CA001034175","1967-12-20",39.02,30.02,64.00,64.00,
"CA001034175","1967-12-21",51.98,30.02,483.00,102.00,
"CA001034175","1967-12-22",51.08,35.96,185.00,0.00,
"CA001034175","1967-12-23",51.08,44.96,709.00,0.00,
"CA001034175","1967-12-24",46.04,44.06,358.00,0.00,
"CA001034175","1967-12-25",48.92,42.98,53.00,0.00,
"CA001034175","1967-12-26",46.04,42.98,30.00,0.00,
"CA001034175","1967-12-27",46.94,42.98,15.00,0.00,
"CA001034175","1967-12-28",48.02,37.04,0.00,0.00,
"CA001034175","1967-12-29",42.98,39.02,0.00,0.00,
"CA001034175","1967-12-30",39.92,35.96,18.00,0.00,
"CA001034175","1967-12-31",42.08,35.96,8.00,0.00,
"CA001034175","1968-01-01",46.94,32.00,0.00,0.00,
"CA001034175","1968-01-02",35.96,28.94,0.00,0.00,
"CA001034175","1968-01-03",41.00,32.00,89.00,0.00,
"CA001034175","1968-01-04",48.02,35.06,0.00,0.00,
"CA001034175","1968-01-05",42.98,30.02,0.00,0.00,
"CA001034175","1968-01-06",39.02,30.02,130.00,0.00,
"CA001034175","1968-01-07",42.08,32.00,127.00,10.00,
"CA001034175","1968-01-08",42.08,32.00,434.00,3.00,
"CA001034175","1968-01-09",42.08,32.00,163.00,56.00,
"CA001034175","1968-01-10",35.06,30.92,89.00,51.00,
"CA001034175","1968-01-11",39.02,30.92,165.00,0.00,
"CA001034175","1968-01-12",46.94,33.98,1057.00,0.00,
"CA001034175","1968-01-13",57.92,35.06,483.00,0.00,
"CA001034175","1968-01-14",53.96,48.92,246.00,0.00,
"CA001034175","1968-01-15",48.02,44.96,163.00,0.00,
"CA001034175","1968-01-16",39.92,35.96,239.00,0.00,
"CA001034175","1968-01-17",50.00,35.06,1074.00,0.00,
"CA001034175","1968-01-18",51.08,42.08,1697.00,0.00,
"CA001034175","1968-01-19",53.06,48.92,856.00,0.00,
"CA001034175","1968-01-20",53.06,46.94,109.00,0.00,
"CA001034175","1968-01-21",51.98,46.04,13.00,0.00,
"CA001034175","1968-01-22",48.92,42.98,10.00,0.00,
"CA001034175","1968-01-23",48.02,44.96,152.00,0.00,
"CA001034175","1968-01-24",46.04,37.94,0.00,0.00,
"CA001034175","1968-01-25",39.92,30.92,0.00,0.00,
"CA001034175","1968-01-26",42.08,33.08,0.00,0.00,
"CA001034175","1968-01-27",39.02,26.96,0.00,0.00,
"CA001034175","1968-01-28",33.08,26.06,0.00,0.00,
"CA001034175","1968-01-29",35.06,28.94,0.00,0.00,
"CA001034175","1968-01-30",44.96,28.04,127.00,127.00,
"CA001034175","1968-01-31",44.96,41.00,0.00,0.00,
"CA001034175","1968-02-01",51.08,39.92,566.00,0.00,
"CA001034175","1968-02-02",50.00,35.96,163.00,0.00,
"CA001034175","1968-02-03",51.08,35.96,406.00,0.00,
"CA001034175","1968-02-04",44.96,35.96,10.00,0.00,
"CA001034175","1968-02-05",46.04,30.02,0.00,0.00,
"CA001034175","1968-02-06",51.98,37.04,0.00,0.00,
"CA001034175","1968-02-07",57.02,35.06,0.00,0.00,
"CA001034175","1968-02-08",53.96,30.92,0.00,0.00,
"CA001034175","1968-02-09",59.00,37.04,0.00,0.00,
"CA001034175","1968-02-10",53.06,37.94,0.00,0.00,
"CA001034175","1968-02-11",51.08,30.92,0.00,0.00,
"CA001034175","1968-02-12",53.96,30.92,0.00,0.00,
"CA001034175","1968-02-13",51.98,30.02,0.00,0.00,
"CA001034175","1968-02-14",51.98,33.98,0.00,0.00,
"CA001034175","1968-02-15",53.06,28.94,0.00,0.00,
"CA001034175","1968-02-16",53.06,32.00,0.00,0.00,
"CA001034175","1968-02-17",48.02,37.04,564.00,0.00,
"CA001034175","1968-02-18",48.92,37.94,813.00,0.00,
"CA001034175","1968-02-19",50.00,44.96,64.00,0.00,
"CA001034175","1968-02-20",48.92,42.08,,0.00,
"CA001034175","1968-02-21",51.08,44.96,89.00,0.00,
"CA001034175","1968-02-22",48.92,42.98,368.00,0.00,
"CA001034175","1968-02-23",51.08,44.06,201.00,0.00,
"CA001034175","1968-02-24",50.00,44.96,25.00,0.00,
"CA001034175","1968-02-25",48.02,42.08,0.00,0.00,
"CA001034175","1968-02-26",51.98,42.08,0.00,0.00,
"CA001034175","1968-02-27",66.92,42.08,0.00,0.00,
"CA001034175","1968-02-28",64.04,42.98,0.00,0.00,
"CA001034175","1968-02-29",55.04,41.00,117.00,0.00,
"CA001034175","1968-03-01",51.98,42.08,168.00,0.00,
"CA001034175","1968-03-02",48.92,46.94,33.00,0.00,
"CA001034175","1968-03-03",48.92,44.96,340.00,0.00,
"CA001034175","1968-03-04",51.98,46.04,234.00,0.00,
"CA001034175","1968-03-05",48.02,44.96,213.00,0.00,
"CA001034175","1968-03-06",48.92,39.02,48.00,0.00,
"CA001034175","1968-03-07",50.00,39.92,5.00,0.00,
"CA001034175","1968-03-08",50.00,33.98,0.00,0.00,
"CA001034175","1968-03-09",48.92,33.98,46.00,0.00,
"CA001034175","1968-03-10",51.08,41.00,94.00,0.00,
"CA001034175","1968-03-11",44.06,42.08,259.00,0.00,
"CA001034175","1968-03-12",46.94,39.92,307.00,0.00,
"CA001034175","1968-03-13",48.02,41.00,79.00,0.00,
"CA001034175","1968-03-14",46.04,41.00,130.00,0.00,
"CA001034175","1968-03-15",51.98,41.00,107.00,0.00,
"CA001034175","1968-03-16",51.08,39.92,5.00,0.00,
"CA001034175","1968-03-17",46.94,37.04,3.00,0.00,
"CA001034175","1968-03-18",46.94,35.96,30.00,0.00,
"CA001034175","1968-03-19",53.06,41.00,5.00,0.00,
"CA001034175","1968-03-20",60.98,42.08,0.00,0.00,
"CA001034175","1968-03-21",60.98,42.98,0.00,0.00,
"CA001034175","1968-03-22",53.06,46.94,127.00,0.00,
"CA001034175","1968-03-23",48.02,42.98,257.00,0.00,
"CA001034175","1968-03-24",50.00,41.00,76.00,0.00,
"CA001034175","1968-03-25",51.98,39.02,91.00,0.00,
"CA001034175","1968-03-26",48.02,41.00,495.00,0.00,
"CA001034175","1968-03-27",44.06,41.00,109.00,0.00,
"CA001034175","1968-03-28",48.02,35.96,135.00,0.00,
"CA001034175","1968-03-29",51.98,35.96,0.00,0.00,
"CA001034175","1968-03-30",53.96,32.00,0.00,0.00,
"CA001034175","1968-03-31",51.08,41.00,0.00,0.00,
"CA001034175","1968-04-01",53.96,42.08,0.00,0.00,
"CA001034175","1968-04-02",57.02,37.04,0.00,0.00,
"CA001034175","1968-04-03",53.06,41.00,279.00,0.00,
"CA001034175","1968-04-04",50.00,37.94,33.00,0.00,
"CA001034175","1968-04-05",51.98,37.94,74.00,0.00,
"CA001034175","1968-04-06",53.96,41.00,0.00,0.00,
"CA001034175","1968-04-07",50.00,39.02,0.00,0.00,
"CA001034175","1968-04-08",48.92,42.98,30.00,0.00,
"CA001034175","1968-04-09",51.98,44.96,185.00,0.00,
"CA001034175","1968-04-10",48.02,42.98,117.00,0.00,
"CA001034175","1968-04-11",44.06,32.00,0.00,0.00,
"CA001034175","1968-04-12",50.00,30.92,30.00,0.00,
"CA001034175","1968-04-13",46.04,33.98,762.00,0.00,
"CA001034175","1968-04-14",46.94,33.08,251.00,0.00,
"CA001034175","1968-04-15",46.04,35.06,8.00,0.00,
"CA001034175","1968-04-16",53.06,33.08,0.00,0.00,
"CA001034175","1968-04-17",48.92,35.06,155.00,0.00,
"CA001034175","1968-04-18",51.08,39.92,13.00,0.00,
"CA001034175","1968-04-19",51.98,33.08,8.00,0.00,
"CA001034175","1968-04-20",53.06,33.98,13.00,0.00,
"CA001034175","1968-04-21",53.06,33.98,0.00,0.00,
"CA001034175","1968-04-22",57.02,35.96,97.00,0.00,
"CA001034175","1968-04-23",51.98,39.92,244.00,0.00,
"CA001034175","1968-04-24",48.02,41.00,290.00,0.00,
"CA001034175","1968-04-25",51.98,44.96,0.00,0.00,
"CA001034175","1968-04-26",53.96,39.92,3.00,0.00,
"CA001034175","1968-04-27",55.04,44.06,0.00,0.00,
"CA001034175","1968-04-28",62.06,44.06,25.00,0.00,
"CA001034175","1968-04-29",51.98,50.00,152.00,0.00,
"CA001034175","1968-04-30",53.06,44.96,23.00,0.00,
"CA001034175","1968-05-01",51.08,41.00,43.00,0.00,
"CA001034175","1968-05-02",57.92,44.06,0.00,0.00,
"CA001034175","1968-05-03",59.00,42.08,64.00,0.00,
"CA001034175","1968-05-04",53.06,44.06,15.00,0.00,
"CA001034175","1968-05-05",53.96,42.08,0.00,0.00,
"CA001034175","1968-05-06",51.08,44.96,0.00,0.00,
"CA001034175","1968-05-07",55.94,41.00,0.00,0.00,
"CA001034175","1968-05-08",66.92,44.06,0.00,0.00,
"CA001034175","1968-05-09",71.96,50.00,0.00,0.00,
"CA001034175","1968-05-10",60.98,46.04,0.00,0.00,
"CA001034175","1968-05-11",53.96,44.06,10.00,0.00,
"CA001034175","1968-05-12",53.96,44.96,10.00,0.00,
"CA001034175","1968-05-13",57.02,42.08,0.00,0.00,
"CA001034175","1968-05-14",55.94,44.96,0.00,0.00,
"CA001034175","1968-05-15",57.02,42.98,0.00,0.00,
"CA001034175","1968-05-16",64.04,44.06,0.00,0.00,
"CA001034175","1968-05-17",64.94,48.92,0.00,0.00,
"CA001034175","1968-05-18",68.00,48.92,8.00,0.00,
"CA001034175","1968-05-19",60.08,53.96,178.00,0.00,
"CA001034175","1968-05-20",59.00,51.98,48.00,0.00,
"CA001034175","1968-05-21",57.92,48.92,94.00,0.00,
"CA001034175","1968-05-22",59.00,48.92,15.00,0.00,
"CA001034175","1968-05-23",57.92,48.92,10.00,0.00,
"CA001034175","1968-05-24",60.08,48.02,0.00,0.00,
"CA001034175","1968-05-25",60.08,46.94,0.00,0.00,
"CA001034175","1968-05-26",62.06,46.04,0.00,0.00,
"CA001034175","1968-05-27",60.98,48.02,0.00,0.00,
"CA001034175","1968-05-28",60.98,48.92,0.00,0.00,
"CA001034175","1968-05-29",60.08,46.04,0.00,0.00,
"CA001034175","1968-05-30",60.08,42.98,0.00,0.00,
"CA001034175","1968-05-31",62.96,44.96,122.00,0.00,
"CA001034175","1968-06-01",55.94,50.00,218.00,0.00,
"CA001034175","1968-06-02",57.92,50.00,89.00,0.00,
"CA001034175","1968-06-03",62.06,44.96,0.00,0.00,
"CA001034175","1968-06-04",62.06,46.04,0.00,0.00,
"CA001034175","1968-06-05",66.02,48.02,0.00,0.00,
"CA001034175","1968-06-06",62.06,51.08,0.00,0.00,
"CA001034175","1968-06-07",60.08,53.96,0.00,0.00,
"CA001034175","1968-06-08",60.98,51.98,0.00,0.00,
"CA001034175","1968-06-09",57.92,51.08,15.00,0.00,
"CA001034175","1968-06-10",60.08,51.08,0.00,0.00,
"CA001034175","1968-06-11",57.92,48.92,43.00,0.00,
"CA001034175","1968-06-12",51.98,46.04,178.00,0.00,
"CA001034175","1968-06-13",60.08,46.94,28.00,0.00,
"CA001034175","1968-06-14",62.06,44.96,0.00,0.00,
"CA001034175","1968-06-15",62.96,46.94,0.00,0.00,
"CA001034175","1968-06-16",64.04,51.08,0.00,0.00,
"CA001034175","1968-06-17",62.96,53.96,0.00,0.00,
"CA001034175","1968-06-18",57.92,50.00,89.00,0.00,
"CA001034175","1968-06-19",62.96,51.98,0.00,0.00,
"CA001034175","1968-06-20",60.08,44.96,0.00,0.00,
"CA001034175","1968-06-21",59.00,48.02,97.00,0.00,
"CA001034175","1968-06-22",62.96,51.98,0.00,0.00,
"CA001034175","1968-06-23",64.94,50.00,0.00,0.00,
"CA001034175","1968-06-24",68.00,51.98,0.00,0.00,
"CA001034175","1968-06-25",68.00,55.94,610.00,0.00,
"CA001034175","1968-06-26",60.08,55.04,384.00,0.00,
"CA001034175","1968-06-27",59.00,50.00,0.00,0.00,
"CA001034175","1968-06-28",57.92,46.04,15.00,0.00,
"CA001034175","1968-06-29",60.98,46.04,0.00,0.00,
"CA001034175","1968-06-30",66.02,53.06,0.00,0.00,
"CA001034175","1968-07-01",75.92,53.06,0.00,0.00,
"CA001034175","1968-07-02",80.96,57.02,0.00,0.00,
"CA001034175","1968-07-03",69.08,57.02,0.00,0.00,
"CA001034175","1968-07-04",64.04,55.04,0.00,0.00,
"CA001034175","1968-07-05",71.06,57.92,0.00,0.00,
"CA001034175","1968-07-06",73.94,55.04,0.00,0.00,
"CA001034175","1968-07-07",69.08,55.04,0.00,0.00,
"CA001034175","1968-07-08",71.96,55.94,0.00,0.00,
"CA001034175","1968-07-09",66.92,55.94,51.00,0.00,
"CA001034175","1968-07-10",66.92,57.02,58.00,0.00,
"CA001034175","1968-07-11",60.98,57.02,231.00,0.00,
"CA001034175","1968-07-12",60.98,53.96,0.00,0.00,
"CA001034175","1968-07-13",62.96,48.92,76.00,0.00,
"CA001034175","1968-07-14",60.08,51.98,20.00,0.00,
"CA001034175","1968-07-15",60.98,53.06,43.00,0.00,
"CA001034175","1968-07-16",64.04,50.00,0.00,0.00,
"CA001034175","1968-07-17",64.04,51.08,0.00,0.00,
"CA001034175","1968-07-18",64.94,53.96,112.00,0.00,
"CA001034175","1968-07-19",57.92,55.04,25.00,0.00,
"CA001034175","1968-07-20",64.04,55.94,0.00,0.00,
"CA001034175","1968-07-21",62.06,51.98,0.00,0.00,
"CA001034175","1968-07-22",64.04,51.98,0.00,0.00,
"CA001034175","1968-07-23",68.00,51.98,0.00,0.00,
"CA001034175","1968-07-24",75.92,55.04,0.00,0.00,
"CA001034175","1968-07-25",66.92,55.94,0.00,0.00,
"CA001034175","1968-07-26",69.98,57.02,0.00,0.00,
"CA001034175","1968-07-27",77.00,57.02,0.00,0.00,
"CA001034175","1968-07-28",66.92,57.02,0.00,0.00,
"CA001034175","1968-07-29",69.98,53.06,0.00,0.00,
"CA001034175","1968-07-30",78.08,55.04,0.00,0.00,
"CA001034175","1968-07-31",82.04,59.00,0.00,0.00,
"CA001034175","1968-08-01",66.92,57.02,0.00,0.00,
"CA001034175","1968-08-02",62.96,55.04,0.00,0.00,
"CA001034175","1968-08-03",64.94,55.94,0.00,0.00,
"CA001034175","1968-08-04",60.98,57.02,0.00,0.00,
"CA001034175","1968-08-05",60.98,55.94,3.00,0.00,
"CA001034175","1968-08-06",64.94,55.94,0.00,0.00,
"CA001034175","1968-08-07",66.92,51.08,0.00,0.00,
"CA001034175","1968-08-08",71.96,53.06,0.00,0.00,
"CA001034175","1968-08-09",75.02,53.06,0.00,0.00,
"CA001034175","1968-08-10",66.92,53.06,0.00,0.00,
"CA001034175","1968-08-11",64.04,53.96,0.00,0.00,
"CA001034175","1968-08-12",64.04,55.04,145.00,0.00,
"CA001034175","1968-08-13",62.06,55.94,168.00,0.00,
"CA001034175","1968-08-14",64.04,55.04,0.00,0.00,
"CA001034175","1968-08-15",60.98,55.94,69.00,0.00,
"CA001034175","1968-08-16",66.02,53.06,3.00,0.00,
"CA001034175","1968-08-17",62.96,55.04,99.00,0.00,
"CA001034175","1968-08-18",60.98,53.96,53.00,0.00,
"CA001034175","1968-08-19",62.06,51.98,15.00,0.00,
"CA001034175","1968-08-20",62.06,53.96,8.00,0.00,
"CA001034175","1968-08-21",60.98,55.94,33.00,0.00,
"CA001034175","1968-08-22",57.92,55.04,196.00,0.00,
"CA001034175","1968-08-23",60.98,53.96,76.00,0.00,
"CA001034175","1968-08-24",64.04,51.08,33.00,0.00,
"CA001034175","1968-08-25",64.94,51.08,94.00,0.00,
"CA001034175","1968-08-26",62.06,51.08,114.00,0.00,
"CA001034175","1968-08-27",60.08,53.96,48.00,0.00,
"CA001034175","1968-08-28",66.92,55.04,0.00,0.00,
"CA001034175","1968-08-29",68.00,51.08,0.00,0.00,
"CA001034175","1968-08-30",75.02,53.96,0.00,0.00,
"CA001034175","1968-08-31",68.00,53.06,46.00,0.00,
"CA001034175","1968-09-01",66.02,57.92,0.00,0.00,
"CA001034175","1968-09-02",64.94,53.06,0.00,0.00,
"CA001034175","1968-09-03",62.06,51.98,0.00,0.00,
"CA001034175","1968-09-04",73.94,53.96,0.00,0.00,
"CA001034175","1968-09-05",75.02,57.02,0.00,0.00,